Location: Cervino
(41.0333°N, 14.4167°E)
Time: 13:49:42
(UTC+00:00)

Daily predictions for brighter satellites

Satellite Brightness Start Highest point End
(mag) Time Altitude Azimuth Time Altitude Azimuth Time Altitude Azimuth
Cosmos 1570 Rocket 4.4 15:54:00 10° N 15:59:07 44° ENE 16:04:09 10° SE
CENTAUR R/B 3.5 15:59:28 10° WSW 16:04:39 40° NW 16:11:06 10° NNE
NOSS 2-2 (D) 2.9 16:01:07 10° SW 16:04:46 85° WNW 16:07:52 10° NNE
Cosmos 1782 2.9 16:02:20 10° SSE 16:05:47 45° E 16:09:14 10° NNE
Cosmos 1486 Rocket 4.3 16:02:57 10° S 16:07:53 46° ESE 16:12:52 10° NNE
Cosmos 2360 4.5 16:06:11 10° S 16:11:41 53° ESE 16:17:15 10° NNE
Cosmos 1356 Rocket 4.2 16:08:47 10° SSW 16:12:43 53° WNW 16:16:43 10° N
NOSS 2-2 (E) 2.8 16:10:12 10° SW 16:13:53 88° NW 16:16:59 10° NE
CORIOLIS 4.1 16:09:54 10° SSE 16:15:10 66° ENE 16:20:28 10° N
SL-16 R/B 3.1 16:10:03 10° N 16:16:11 62° WNW 16:22:17 10° SSW
Cosmos 405 Rocket 2.1 16:13:59 10° N 16:17:14 68° E 16:20:26 10° SSE
Cosmos 1733 2.2 16:15:31 10° NNE 16:17:16 30° E 16:19:00 10° SSE
SJ-12 4.2 16:15:09 10° SE 16:18:38 36° ENE 16:22:07 10° N
Cosmos 2227 Rocket 3.5 16:16:17 10° N 16:20:03 18° NE 16:23:47 10° E
Cosmos 1933 4.4 16:18:28 10° SE 16:21:28 22° E 16:24:29 10° NE
Cosmos 2228 3.9 16:20:50 10° SSW 16:24:55 50° W 16:29:04 10° N
Cosmos 773 Rocket 4.1 16:20:05 10° N 16:25:10 52° ENE 16:30:17 10° SE
ARIANE 5 R/B 2.5 16:21:14 10° SSE 16:26:09 59° ENE 16:31:09 10° N
SPOT 1/Viking Rocket 4.3 16:24:41 10° SE 16:29:09 30° ENE 16:33:37 10° N
Cosmos 2098 Rocket 2.7 16:26:32 10° S 16:30:12 78° E 16:34:37 10° N
Cosmos 1758 Rocket 3.4 16:27:02 10° N 16:31:21 77° E 16:35:37 10° SSE
Intercosmos 24 3.8 16:27:52 10° N 16:31:42 78° W 16:35:14 10° S
BREEZE M DEB (TANK) 3.6 16:20:34 10° WNW 16:32:45 58° NNE 16:35:57 14° E
Cosmos 2208 Rocket 4.0 16:27:53 10° NNW 16:33:01 62° ENE 16:38:08 10° SSE
Cosmos 1697 Rocket 3.3 16:30:31 10° S 16:35:36 37° ESE 16:40:11 12° NE
AQUARIUS 4.1 16:36:17 10° SSE 16:40:36 60° ENE 16:44:58 10° N
Gbstr 26 Del rocket 3.3 16:37:21 10° SSW 16:41:17 41° SE 16:43:27 21° ENE
Meteor 1-20 Rocket 4.1 16:39:43 10° N 16:45:07 59° ENE 16:50:29 10° SSE
IRS-1C 4.1 16:42:24 10° SSE 16:47:43 89° WSW 16:53:04 10° NNW
USA 290 2.5 16:46:35 10° N 16:49:43 44° ENE 16:52:51 10° SE
Helios 1A Rocket 4.0 16:51:36 19° ESE 16:51:36 19° ESE 16:53:26 10° SE
SMAP 3.8 16:47:40 10° S 16:52:14 57° W 16:56:50 10° NNW
CZ-2D R/B 3.0 16:49:45 10° S 16:52:51 69° WSW 16:55:59 10° NNW
NOSS 2-3 (E) 4.1 16:50:45 10° S 16:54:02 29° ESE 16:54:51 26° E
NOSS 2-3 (D) 4.1 16:54:01 10° S 16:57:20 29° ESE 16:57:57 27° E
NOSS 3-2 (C) 3.0 16:53:08 10° SW 16:58:01 84° NW 17:02:36 16° NNE
Landsat 7 4.2 16:53:47 10° S 16:58:23 65° W 17:03:01 10° NNW
NOSS 3-2 (A) 4.4 16:55:34 10° WSW 17:00:08 34° NW 17:05:29 10° NNE
Cosmos 1606 Rocket 3.5 16:56:00 10° S 17:00:19 64° E 17:04:43 10° NNE
Cosmos 2151 3.0 17:00:14 10° N 17:04:23 77° W 17:08:32 10° S
Cosmos 1655 Rocket 4.2 16:59:08 10° N 17:05:07 46° ENE 17:11:03 10° SSE
BlueWalker 3 1.6 17:03:54 10° NW 17:07:31 71° NE 17:08:45 38° ESE
Resurs 1-3 3.9 17:03:48 10° SE 17:07:50 41° ENE 17:11:53 10° N
Cosmos 1743 3.5 17:05:50 10° NNW 17:08:56 42° W 17:12:00 10° SSW
ATLAS CENTAUR R/B 0.5 17:07:13 10° NNW 17:10:26 87° ENE 17:11:43 33° SE
Cosmos 1076 Rocket 4.1 17:06:46 10° N 17:11:35 33° ESE 17:14:45 10° SE
Okean 1-7 Rocket 3.5 17:08:04 10° N 17:12:28 89° ENE 17:16:50 10° S
Cosmos 1503 Rocket 4.3 17:07:55 10° SSW 17:13:09 69° WNW 17:18:11 11° NNE
Cosmos 1461 2.9 17:09:45 10° SW 17:13:35 66° NW 17:15:26 29° NNE
Cosmos 2297 Rocket 2.2 17:08:05 10° NNW 17:13:47 84° WSW 17:19:26 10° SSE
Meteor 1-25 Rocket 4.2 17:09:22 10° N 17:15:14 82° E 17:20:59 10° SSE
Cosmos 1354 Rocket 4.0 17:14:42 10° SSW 17:19:59 86° WNW 17:23:56 18° NNE
Spot 4 Rocket 3.9 17:18:25 10° SSE 17:23:27 68° ENE 17:28:32 10° N
Cosmos 1726 Rocket 3.6 17:22:19 10° S 17:26:57 89° W 17:30:23 18° N
SKYMED 2 3.8 17:23:07 12° N 17:27:03 67° WNW 17:31:21 10° SSW
PSLV R/B 4.5 17:23:08 10° SSE 17:28:53 30° N 17:31:03 10° N
MOS 1 Rocket 4.4 17:23:32 10° S 17:28:05 48° W 17:32:56 10° NNW
Meteor 1-5 Rocket 4.0 17:24:46 10° N 17:30:06 71° E 17:35:32 10° SSE
COSMO-SKYMED 1 2.3 17:29:12 39° NNE 17:30:42 89° ESE 17:34:48 10° SSW
SL-19 R/B 4.0 17:27:00 10° SSE 17:32:14 69° ENE 17:37:44 10° N
CZ-2D R/B 3.6 17:32:04 10° S 17:36:16 73° WSW 17:40:28 10° NNW
Cosmos 1980 Rocket 2.2 17:31:36 10° S 17:37:05 54° ESE 17:37:43 51° E
Cosmos 1898 Rocket 4.5 17:33:02 10° SSE 17:36:05 30° SE 17:36:05 30° SE
Cosmos 2084 Rocket 3.9 17:34:37 10° NNW 17:37:51 47° N 17:37:51 47° N
Meteor 2-2 Rocket 4.3 17:33:45 10° SSE 17:39:07 50° E 17:39:07 50° E
CZ-4C R/B 3.0 17:32:01 10° NNW 17:39:21 81° NE 17:48:16 10° SE
YAOGAN 1 2.5 17:37:18 10° S 17:41:32 79° WSW 17:45:49 10° NNW
Cosmos 1867 3.4 17:37:32 10° NNW 17:43:00 71° NE 17:44:01 57° ESE
Cosmos 1900 4.2 17:41:37 10° NNW 17:46:40 84° ENE 17:47:17 68° SE
Cosmos 2263 Rocket 3.0 17:50:06 10° NNW 17:53:46 37° N 17:53:46 37° N
Aureole 1 Rocket 4.2 17:52:01 10° SSW 17:54:02 31° S 17:54:02 31° S
USA 238 DEB 3.3 17:51:27 10° SSW 17:57:26 79° ESE 17:58:22 65° ENE
USA 238 3.3 17:51:33 10° SSW 17:57:33 78° ESE 17:58:26 65° ENE
USA 81 4.0 17:57:03 10° N 18:02:19 79° W 18:07:34 10° S
USA 215 4.1 18:04:26 34° NNE 18:04:26 34° NNE 18:09:44 10° NW
Cosmos 2227 Rocket 2.2 17:59:03 10° NNW 18:04:42 76° WSW 18:06:42 41° S
NOAA 6 4.2 18:02:00 10° S 18:07:05 70° WSW 18:12:11 10° NNW
BREEZE-M DEB (TANK) 3.3 18:00:58 10° SW 18:09:01 76° SSE 18:09:01 76° SSE
Cosmos 372 Rocket 4.3 18:05:15 10° SSW 18:09:23 58° SSW 18:09:23 58° SSW
Cosmos 1553 Rocket 3.8 18:08:24 10° S 18:14:11 81° SSE 18:14:11 81° SSE
Cosmos 2058 Rocket 4.4 18:12:48 10° SSW 18:15:38 36° SW 18:15:38 36° SW
Cosmos 1697 Rocket 4.2 18:14:35 10° WSW 18:19:33 32° WNW 18:21:56 23° NNW
Cosmos 1980 Rocket 4.4 19:16:54 10° WSW 19:19:32 20° W 19:19:32 20° W
